SB KEPS @ AMSAT $ORB11202.O Orbital Elements 11202.OSCAR
HR AMSAT ORBITAL ELEMENTS FOR OSCAR SATELLITES FROM WA5QGD FORT WORTH,TX July 21, 2011 Send Subscribe/unsubscribe to KEPS at http://www.amsat.org/mailman/listinfo/keps BID: ORB11202.O TO ALL RADIO AMATEURS BT
Satellite: AO-07 Catalog number: 07530 Epoch time: 11202.47266022 Element set: 134 Inclination: 101.3923 deg RA of node: 207.6610 deg Eccentricity: 0.0011627 Arg of perigee: 211.3028 deg Mean anomaly: 148.7357 deg Mean motion: 12.53583211 rev/day Decay rate: -2.7e-07 rev/day^2 Epoch rev: 67848 Checksum: 260
Satellite: UO-11 Catalog number: 14781 Epoch time: 11201.74061837 Element set: 0612 Inclination: 098.0036 deg RA of node: 258.3427 deg Eccentricity: 0.0009934 Arg of perigee: 035.2596 deg Mean anomaly: 324.9271 deg Mean motion: 14.80001938 rev/day Decay rate: 3.91e-06 rev/day^2 Epoch rev: 47075 Checksum: 293
Satellite: FO-29 Catalog number: 24278 Epoch time: 11202.44310118 Element set: 621 Inclination: 098.5511 deg RA of node: 341.9584 deg Eccentricity: 0.0350827 Arg of perigee: 168.3240 deg Mean anomaly: 192.6306 deg Mean motion: 13.52963891 rev/day Decay rate: -2.4e-07 rev/day^2 Epoch rev: 73709 Checksum: 301
Satellite: SO-33 Catalog number: 25509 Epoch time: 11201.85068753 Element set: 14 Inclination: 031.4328 deg RA of node: 053.9125 deg Eccentricity: 0.0353434 Arg of perigee: 176.0509 deg Mean anomaly: 184.3064 deg Mean motion: 14.28430262 rev/day Decay rate: 5.8e-07 rev/day^2 Epoch rev: 66509 Checksum: 283
Satellite: RS-22 Catalog number: 27939 Epoch time: 11202.74749848 Element set: 463 Inclination: 097.8430 deg RA of node: 055.0881 deg Eccentricity: 0.0012397 Arg of perigee: 233.7208 deg Mean anomaly: 126.2853 deg Mean motion: 14.63612520 rev/day Decay rate: 1.42e-06 rev/day^2 Epoch rev: 41739 Checksum: 307
Satellite: VO-52 Catalog number: 28650 Epoch time: 11202.66179723 Element set: 851 Inclination: 097.6393 deg RA of node: 244.2472 deg Eccentricity: 0.0027944 Arg of perigee: 050.3080 deg Mean anomaly: 310.0590 deg Mean motion: 14.82116807 rev/day Decay rate: 1.52e-06 rev/day^2 Epoch rev: 33585 Checksum: 291
Satellite: SO-67 Catalog number: 35870 Epoch time: 11202.89402542 Element set: 49 Inclination: 097.2783 deg RA of node: 245.0962 deg Eccentricity: 0.0000573 Arg of perigee: 251.9462 deg Mean anomaly: 212.0957 deg Mean motion: 15.20887611 rev/day Decay rate: 1.442e-05 rev/day^2 Epoch rev: 10221 Checksum: 288
Satellite: HO-68 Catalog number: 36122 Epoch time: 11202.74625606 Element set: 576 Inclination: 100.4134 deg RA of node: 263.0313 deg Eccentricity: 0.0007879 Arg of perigee: 144.4933 deg Mean anomaly: 215.6710 deg Mean motion: 13.16287198 rev/day Decay rate: -4.4e-07 rev/day^2 Epoch rev: 7678 Checksum: 294
/EX SB KEPS @ AMSAT $ORB11202.D Orbital Elements 11202.MICROS
HR AMSAT ORBITAL ELEMENTS FOR THE MICROSATS FROM WA5QGD FORT WORTH,TX July 21, 2011 Send Subscribe/unsubscribe to KEPS at http://www.amsat.org/mailman/listinfo/keps BID: ORB11202.D TO ALL RADIO AMATEURS BT
Satellite: AO-16 Catalog number: 20439 Epoch time: 11201.98185478 Element set: 0252 Inclination: 098.3870 deg RA of node: 150.4740 deg Eccentricity: 0.0011932 Arg of perigee: 064.1392 deg Mean anomaly: 296.1016 deg Mean motion: 14.31929152 rev/day Decay rate: 1.0e-07 rev/day^2 Epoch rev: 12245 Checksum: 274
Satellite: LO-19 Catalog number: 20442 Epoch time: 11201.91631519 Element set: 0166 Inclination: 098.3494 deg RA of node: 154.6327 deg Eccentricity: 0.0012813 Arg of perigee: 058.7396 deg Mean anomaly: 301.5037 deg Mean motion: 14.32154587 rev/day Decay rate: 6.6e-07 rev/day^2 Epoch rev: 12262 Checksum: 288
Satellite: AO-27 Catalog number: 22825 Epoch time: 11201.89117452 Element set: 870 Inclination: 098.5334 deg RA of node: 145.6530 deg Eccentricity: 0.0008339 Arg of perigee: 170.6796 deg Mean anomaly: 189.4536 deg Mean motion: 14.29355400 rev/day Decay rate: 1.42e-06 rev/day^2 Epoch rev: 92900 Checksum: 306
Satellite: IO-26 Catalog number: 22826 Epoch time: 11201.88444149 Element set: 0615 Inclination: 098.5257 deg RA of node: 146.1096 deg Eccentricity: 0.0008830 Arg of perigee: 164.6703 deg Mean anomaly: 195.4748 deg Mean motion: 14.29617805 rev/day Decay rate: 2.3e-07 rev/day^2 Epoch rev: 92912 Checksum: 316
Satellite: GO-32 Catalog number: 25397 Epoch time: 11201.51732011 Element set: 0535 Inclination: 098.3270 deg RA of node: 192.2990 deg Eccentricity: 0.0001540 Arg of perigee: 138.8388 deg Mean anomaly: 221.2916 deg Mean motion: 14.23213598 rev/day Decay rate: 5.7e-07 rev/day^2 Epoch rev: 67670 Checksum: 289
Satellite: NO-44 Catalog number: 26931 Epoch time: 11202.59999375 Element set: 805 Inclination: 067.0512 deg RA of node: 254.8551 deg Eccentricity: 0.0006269 Arg of perigee: 255.0661 deg Mean anomaly: 104.9758 deg Mean motion: 14.29668307 rev/day Decay rate: -8.5e-07 rev/day^2 Epoch rev: 51184 Checksum: 327
Satellite: SO-50 Catalog number: 27607 Epoch time: 11202.51561788 Element set: 520 Inclination: 064.5563 deg RA of node: 223.3570 deg Eccentricity: 0.0075697 Arg of perigee: 313.8996 deg Mean anomaly: 045.5873 deg Mean motion: 14.71774417 rev/day Decay rate: 1.81e-06 rev/day^2 Epoch rev: 46114 Checksum: 316
Satellite: CO-55 Catalog number: 27844 Epoch time: 11201.55670536 Element set: 157 Inclination: 098.7059 deg RA of node: 209.7722 deg Eccentricity: 0.0010629 Arg of perigee: 099.9344 deg Mean anomaly: 260.3057 deg Mean motion: 14.20826148 rev/day Decay rate: 9.9e-07 rev/day^2 Epoch rev: 41765 Checksum: 324
Satellite: CO-57 Catalog number: 27848 Epoch time: 11201.99833270 Element set: 108 Inclination: 098.7115 deg RA of node: 209.4076 deg Eccentricity: 0.0010745 Arg of perigee: 103.0370 deg Mean anomaly: 257.2032 deg Mean motion: 14.20604031 rev/day Decay rate: 6.2e-07 rev/day^2 Epoch rev: 41766 Checksum: 271
Satellite: AO-51 Catalog number: 28375 Epoch time: 11201.86257070 Element set: 25 Inclination: 098.1005 deg RA of node: 178.5406 deg Eccentricity: 0.0084144 Arg of perigee: 328.8419 deg Mean anomaly: 030.7794 deg Mean motion: 14.40768259 rev/day Decay rate: 4.8e-07 rev/day^2 Epoch rev: 37091 Checksum: 307
Satellite: CP3 Catalog number: 31129 Epoch time: 11202.73096943 Element set: 922 Inclination: 097.8971 deg RA of node: 224.9462 deg Eccentricity: 0.0103398 Arg of perigee: 074.1516 deg Mean anomaly: 287.0972 deg Mean motion: 14.52519599 rev/day Decay rate: 2.14e-06 rev/day^2 Epoch rev: 22585 Checksum: 320
Satellite: CO-65 Catalog number: 32785 Epoch time: 11202.30883948 Element set: 48 Inclination: 097.8478 deg RA of node: 265.5477 deg Eccentricity: 0.0016063 Arg of perigee: 066.8022 deg Mean anomaly: 293.4860 deg Mean motion: 14.82053087 rev/day Decay rate: 3.78e-06 rev/day^2 Epoch rev: 17459 Checksum: 340
Satellite: PRISM Catalog number: 33493 Epoch time: 11202.86955367 Element set: 791 Inclination: 098.1284 deg RA of node: 331.9941 deg Eccentricity: 0.0018456 Arg of perigee: 290.8289 deg Mean anomaly: 069.0968 deg Mean motion: 14.81790537 rev/day Decay rate: 8.04e-06 rev/day^2 Epoch rev: 13465 Checksum: 341
Satellite: SOHLA-1 Catalog number: 33496 Epoch time: 11202.50128889 Element set: 469 Inclination: 098.0837 deg RA of node: 311.9916 deg Eccentricity: 0.0007220 Arg of perigee: 022.5100 deg Mean anomaly: 337.6414 deg Mean motion: 14.69635874 rev/day Decay rate: 1.99e-06 rev/day^2 Epoch rev: 13352 Checksum: 302
Satellite: TISAT-1 Catalog number: 36799 Epoch time: 11202.67070461 Element set: 64 Inclination: 098.0995 deg RA of node: 271.2618 deg Eccentricity: 0.0015691 Arg of perigee: 160.9481 deg Mean anomaly: 199.2323 deg Mean motion: 14.80624088 rev/day Decay rate: 6.14e-06 rev/day^2 Epoch rev: 5541 Checksum: 306
Satellite: STUDSAT Catalog number: 36801 Epoch time: 11201.79749037 Element set: 214 Inclination: 098.1056 deg RA of node: 270.2673 deg Eccentricity: 0.0013683 Arg of perigee: 152.3731 deg Mean anomaly: 207.8209 deg Mean motion: 14.80781048 rev/day Decay rate: 1.686e-05 rev/day^2 Epoch rev: 5527 Checksum: 292
Satellite: RAX Catalog number: 37223 Epoch time: 11152.36844328 Element set: 0173 Inclination: 071.9713 deg RA of node: 073.6151 deg Eccentricity: 0.0021634 Arg of perigee: 311.5989 deg Mean anomaly: 048.3343 deg Mean motion: 14.77415682 rev/day Decay rate: 6.35e-06 rev/day^2 Epoch rev: 02854 Checksum: 291
Satellite: OOREOS Catalog number: 37224 Epoch time: 11153.29456974 Element set: 0179 Inclination: 071.9726 deg RA of node: 071.8135 deg Eccentricity: 0.0020315 Arg of perigee: 307.7637 deg Mean anomaly: 052.1684 deg Mean motion: 14.77036357 rev/day Decay rate: 4.92e-06 rev/day^2 Epoch rev: 02867 Checksum: 309
Satellite: FO-69 Catalog number: 37227 Epoch time: 11201.38908846 Element set: 0085 Inclination: 071.9707 deg RA of node: 326.0545 deg Eccentricity: 0.0018107 Arg of perigee: 223.3313 deg Mean anomaly: 136.6437 deg Mean motion: 14.76612984 rev/day Decay rate: 1.72e-06 rev/day^2 Epoch rev: 01422 Checksum: 297
Satellite: NANOSALD Catalog number: 37361 Epoch time: 11195.47230963 Element set: 0279 Inclination: 071.9555 deg RA of node: 331.2023 deg Eccentricity: 0.0036880 Arg of perigee: 092.3693 deg Mean anomaly: 268.2993 deg Mean motion: 15.07133433 rev/day Decay rate: 2.16964e-03 rev/day^2 Epoch rev: 02622 Checksum: 307
Satellite: FO-70 Catalog number: 37380 Epoch time: 11201.40801937 Element set: 0221 Inclination: 071.9737 deg RA of node: 326.1604 deg Eccentricity: 0.0018643 Arg of perigee: 220.6063 deg Mean anomaly: 139.3707 deg Mean motion: 14.76378394 rev/day Decay rate: 1.76e-06 rev/day^2 Epoch rev: 03576 Checksum: 294
/EX SB KEPS @ AMSAT $ORB11202.W Orbital Elements 11202.WEATHER
HR AMSAT ORBITAL ELEMENTS FOR WEATHER SATELLITES FROM WA5QGD FORT WORTH,TX July 21, 2011 Send Subscribe/unsubscribe to KEPS at http://www.amsat.org/mailman/listinfo/keps BID: ORB11202.W TO ALL RADIO AMATEURS BT
